Location: Caltech
(34.1382°N, 118.1253°W)
Time: 00:50:18
(UTC-07:00)

NOAA 19 - Visible Passes

Search period start: 28 May 2018 00:00
Search period end: 07 June 2018 00:00
Orbit: 841 x 862 km, 99.1° (Epoch: 27 May)

Date Brightness Start Highest point End Pass type
(mag) Time Alt. Az. Time Alt. Az. Time Alt. Az.
28 May 7.1 04:17:47 10° NE 04:22:23 27° E 04:26:58 10° SSE visible
29 May 7.5 04:06:40 10° NE 04:10:44 21° E 04:14:45 10° SE visible
30 May 7.7 03:55:49 10° ENE 03:59:02 16° E 04:02:15 10° SE visible
31 May 7.9 03:45:31 10° ENE 03:47:21 12° E 03:49:10 10° ESE visible
01 Jun 5.3 05:11:19 10° NNE 05:16:53 87° ESE 05:22:26 10° SSW visible
02 Jun 5.6 04:59:47 10° NNE 05:05:19 68° ESE 05:10:50 10° S visible
03 Jun 6.0 04:48:19 10° NNE 04:53:43 52° E 04:59:06 10° S visible
04 Jun 6.5 04:36:55 10° NNE 04:42:06 40° E 04:47:17 10° SSE visible
05 Jun 6.9 04:25:36 10° NE 04:30:29 31° E 04:35:20 10° SSE visible
06 Jun 7.3 04:14:24 10° NE 04:18:50 24° E 04:23:14 10° SSE visible
